Showing default

KUIPER-00620, 69295

Orbit data source: Space-Track

KUIPER-00620, 69295 is a payload satellite owned by Kuiper Systems (US) in LEO that was launched on Fri, 29 May 2026 UTC via an ATLAS V 551 launch vehicle from the Air Force Eastern Test Range (AFETR). Payload-class satellites include a variety of spacecraft equipped with specific instruments for various scientific and technological missions. These include communications satellites like Starlink; space stations such as the ISS; scientific satellites like the Hubble; Earth observation satellites from companies like Planet Labs, Umbra, and HawkEye 360; GPS; miniature CubeSats for education and research; and military/defense satellites.

Loading next visibility...
Identifier
69295, 2026-118AE
Orbit
LEO
Country
Flag of USUS
Related business
Manufacturer
Kuiper Systems
Mission
Operational spacecraft
Bus & Motor
KUIPER, Unknown motor
Mass
~490 kg wet, ~490 kg dry
Launch date (UTC)
2026-05-29 (3 weeks ago)
Launch vehicle
ATLAS V 551
Launch site
Air Force Eastern Test Range (AFETR)
Object type
Payload
Rocket body
Debris
Shape & HBR
Unknown
Radar Cross Section
Large (>1 m²)

Expand to show TLE details & history
Last TLE update: 21 hours ago

TLE from 21 hours ago
0 KUIPER-00620
1 69295U 26118AE  26171.04235981  .00020391  00000-0  53915-3 0  9999
2 69295  51.8724  39.3179 0002609 131.0092 229.1121 15.38383662  4428
Epoch: 2026-06-20T01:00Z
TLE epoch observation values (Epoch: 2026-06-20T01:00:59.887Z)
Latitude
-0.00003°
Longitude
115.80568°
Altitude
452.818 km
Speed
7.641 km/s
True Right ascension
02h 37m 16s
True Declination
0° 00' 00"
Sunlit
Object was in daylight at epoch
Visualization orbit readout
Latitude
Unknown
Longitude
Unknown
Altitude
Unknown
Speed
Unknown
Apparent Right ascension
Unknown
Apparent Declination
Unknown
Sunlit
N/A
Visualization observer readout
Local Sidereal Time
08:32:19
Azimuth
Unknown
Elevation
Unknown
Doppler factor
Unknown
Orbital elements
Apogee altitude
453.138 km
Perigee altitude
449.574 km
Semi-major axis
6,829.493 km
Eccentricity
0.00026
Inclination
51.8724°
RAAN
39.3179°
Arg. of periapsis
131.0092°
True anomaly
229.0895°
Mean anomaly
229.1121°
Eccentric anomaly
229.1008°
Mean motion
3.84557 °/min
Orbital period
93.61 mins
BSTAR
0.00053915
Loading maneuver chart data...
Computing Atmospheric mass density...
Loading historical data...
Loading historical data...
Loading historical data...
Loading historical data...
Loading historical data...
Loading historical data...
Loading historical data...

Documentation

Showing up to 5 results
|